Погода Форт-Шевченко

Хотите узнать прогноз погоды Форт-Шевченко? Тогда Вам сюда: Погода Форт-Шевченко

Поиск расширенной информации на нашем сайте:

Полезная информация:

Новости сайта



02.01.2020
Опубликован Долгосрочный прогноз погоды по городам России и ближнего зарубежья на январь 2020 года.
Карты: Прогноз на январь и февраль 2020 года, Сравнение прогнозируемой аномалии приземной температуры воздуха на январь 2020 года по разным моделям.




Погода Форт-Шевченко - сегодня

Время (UTC), дата Ветер
(°,м/с) 
Видим.   Явления Облачность Т
(°С)
Тd
(°С)
f(%) Тe
(°С)
Pmin
(гПа)
dP
(гПа)
Po
(мм)
O2
(г/м3)
Тmin Tmax R s Состояние
почвы
09 22.10.21 110 (В) 10  10 км    8/0 средняя 
[Ac trans]
+17.8 +12.2 70 +21  1022.9  -1.6  769  289           
12 22.10.21 160 (Ю) 12  10 км    3/0 средняя 
[Ac trans]
+18.1 +12.3 69 +21  1021.9  -1  769  288           
15 22.10.21 160 (Ю) 12  10 км    3/0 средняя 
[Ac trans]
+15.8 +13.5 86 +20  1021.9  769  290    +18.2       
18 22.10.21 140 (ЮВ) 10  10 км    ясно 
+13.8 +11.2 84 +14  1022.2  0.5  769  293    +18.2       
21 22.10.21 140 (ЮВ) 10  10 км    ясно 
+12 +9 82 +10  1021.7  -0.6  768  295           
00 23.10.21 140 (ЮВ) 12  10 км    4/0 средняя 
[Ac trans]
+10.8 +7.7 81 +8  1020.7  -1  768  296           
03 23.10.21 140 (ЮВ) 10  10 км    6/0 средняя 
[Ac trans]
+11.4 +7.7 78 +9  1021  0.2  768  296           
06 23.10.21 140 (ЮВ) 10 км    6/0 средняя 
[Ac trans]
+18.1 +6.7 47 +18  1022.2  1.1  769  289  +10.6         
09 23.10.21 140 (ЮВ) 10 км    5/0 верхняя 
[Ci sp]
+18.3 +6.2 45 +18  1021.5  -0.7  768  289           
12 23.10.21 140 (ЮВ) 10 км    3/0 верхняя 
[Ci sp]
+18.7 +8.9 53 +19  1020.6  -0.9  768  288           
15 23.10.21 140 (ЮВ) 10 км    ясно 
+15.3 +9.3 67 +15  1020.5  -0.1  767  291    +18.9       
18 23.10.21 110 (В) 10 км    ясно 
+14 +9.5 74 +15  1020  -0.5  767  292    +18.9       
21 23.10.21 110 (В) 10 км    8/0 средняя 
[Ac trans]
+13.1 +9.8 80 +14  1018.7  -1.3  766  293           
00 24.10.21 140 (ЮВ) 10 км    10/0 средняя 
[Ac As]
+10.5 +6.2 75 +11  1018.1  -0.5  766  296           
03 24.10.21 110 (В) 10 км    10/0 средняя 
[Ac As]
+12.4 +2.5 51 +13  1018.1  766  295           
06 24.10.21 110 (В) 10 км    9/0 средняя 
[Ac trans]
+13.3 +3.8 53 +13  1018.8  0.6  766  294  +10.3         
09 24.10.21 230 (ЮЗ) 10 км    9/0 средняя 
[Ac trans]
+15.3 +11 76 +18  1018.2  -0.6  766  290           
12 24.10.21 тихо ()   10 км    3/0 верхняя 
[Ci sp]
+16.3 +11.9 75 +20  1017.2  -1  765  289           
15 24.10.21 тихо ()   10 км    5/0 верхняя 
[Ci sp]
+13 +10.5 85 +14  1017.1  -0.1  765  292    +16.9       
18 24.10.21 тихо ()   10 км    5/0 верхняя 
[Ci sp]
+12.8 +10 83 +14  1016.3  -0.8  764  292    +16.9       
21 24.10.21 050 (СВ) 10 км    4/0 верхняя 
[Ci sp]
+11.6 +8.4 81 +12  1015.3  -0.8  764  294           
00 25.10.21 050 (СВ) 10 км    4/0 верхняя 
[Ci sp]
+10.8 +8 83 +11  1015.1  -0.2  764  295           
03 25.10.21 360 (С) 10 км    6/0 верхняя 
[Ci sp]
+11.3 +7.8 79 +12  1015.4  0.3  764  294           
06 25.10.21 320 (СЗ) 10 км    4/0 верхняя 
[Ci sp]
+12.2 +8.4 78 +13  1017.3  1.9  765  294  +10.5         
09 25.10.21 320 (СЗ) 4000 м  дымка  10/10 300 м 
[St]
+12 +9.8 86 +12  1018.2  0.9  766  294           
Время (UTC), дата Ветер
(°,м/с) 
Видим.   Явления Облачность Т
(°С)
Тd
(°С)
f(%) Тe
(°С)
Pmin
(гПа)
dP
(гПа)
Po
(мм)
O2
(г/м3)
Тmin Tmax R s Состояние
почвы

Для получения пояснительной информации подведите курсор к названию столбца.

ПОГОДА Форт-Шевченко - архив

Всё, что Вы хотите узнать о погоде Форт-Шевченко - удобно и подробно!

Выберите нужную дату (начиная с 1 января 2019* года) и нажмите кнопку "Найти".
Будут отображены архивные сводки погоды по пункту Форт-Шевченко, начиная с указанной даты.


Отображать данные в формате CSV (для использования в таблицах Excel)


Внимание! Наш архив погоды предназначен исключительно для личного некоммерческого использования в познавательных целях. Если Вам необходимы официальные справки о состоянии погоды (для производственных, юридических, коммерческих и т.п. целей), обращайтесь в органы Росгидромета.

*Примечание: данная дата относится к архиву по метеостанциям СССР (Россия, СНГ, Балтия).
Архив по метеостанциям Зарубежной Европы и Азии (кроме Китая) хранится 10 дней, по другим регионам земного шара (Китай, Африка, Америка, Австралия, Океания) - 1 день.

Форт-Шевченко - район местоположения метеостанции


Название, широта, долгота, высота метеостанции:
Форт-Шевченко 44.6°ш. 50.2°д. -25 м над ур. моря [Казахстан]

Дополнительная информация

В oтличие oт бoльшинства пoгoдных сайтoв мы публикуем пoдрoбную метеoинфoрмацию в детальнoм прoфессиoнальнoм фoрмате.

Характеристики температуры и влажнoсти вoздуха измеряются на высoте 2 м в тени вдали oт зданий и деревьев.
Скoрoсть ветра измеряется на высoте 10 м (на урoвне рoста челoвека скoрoсть ветра ниже в 1.5-2 раза). Если метеoстанция нахoдится в гoрoде или в лесу, тo скoрoсть ветра занижена на 2-4 м/с пo сравнению с oткрытым местoм. Скoрoсть ветра над акватoриями крупных рек и oзёр, а также на вершинах хoлмoв на 2-5 м/с выше, чем в oбычных услoвиях.
Атмoсфернoе давление в разных тoчках местнoсти мoжет значительнo oтличаться oт давления на метеoстанции, в зависимoсти oт услoвий рельефа (при пoдъёме на 10 м давление пoнижается примернo на 1 мм рт.ст.).